User: anonymous   Login
Location: Carbonear
(47.7333°N, 53.2500°W)
Time: 18:23:06
(UTC+00:00)
Language:

AIST 2D - Orbit

View from above orbital plane
View from above orbital plane
View from above satellite
View from above satellite

Ground track
Ground track

The orbit data is extracted from the following two-line orbital elements,

1 41465U 16026B   22334.29610959  .00017842  00000-0  36217-3 0  9994
2 41465  97.0272 205.2834 0006483 246.6271 248.3626 15.46379229369111
Epoch (UTC): 30 November 2022 07:06:23
Eccentricity: 0.0006483
inclination: 97.0272°
perigee height: 423 km
apogee height: 432 km
right ascension of ascending node: 205.2834°
argument of perigee: 246.6271°
revolutions per day: 15.46379229
mean anomaly at epoch: 248.3626°
orbit number at epoch: 36911

The dashed part of the orbit path shows where the satellite is in the earth's shadow,  

DLR